COSMOS 2436 (723)

Last updated on Mon Jun 22 2026 00:03:26 GMT+0000 (Coordinated Universal Time)

1 32395U 07065C 26172.16299959 .00000072 00000+0 00000+0 0 9995 2 32395 64.3269 191.8539 0017273 353.7680 46.7887 2.13100047143817
UTC large
Height (km)
Speed (km/s)
/
Latitude / Longitude
Inclination (degrees)
Orbital Period (minutes)
Azimuth
Elevation
Range (km)
Doppler Factor

Next 0 passes for location: London (51.5072 / 0.1276)

No passes found over London.
COSMOS 2436 (723)